Wind_Speed
8 8 12 10 9 9 10 12 13 13 9 9 12 16 14 7 10 9 7 9 11 12 16 23 24 29 33 33 33 32 28 25 23 21 20 22 24 27 29 31 31 32 30 30
6 13 6 2 4 8 11 12 13 8 5 11 15 17 14 9 7 10 10 12 14 16 17 20 28 30 32 34 36 37 36 32 28 26 27 22 24 25 27 29 32 32 32 33
12 6 3 4 7 9 12 11 10 12 15 19 15 14 14 12 8 7 9 13 15 20 23 23 28 31 31 33 35 37 39 37 35 30 30 29 26 26 25 25 26 31 35 34
11 10 8 9 10 5 12 4 7 12 11 11 13 9 10 14 9 7 10 14 21 20 21 21 26 30 32 32 32 33 35 36 37 37 30 28 28 25 27 29 27 29 31 35
2 8 9 10 6 1 7 6 12 15 14 16 16 10 4 7 2 8 16 17 18 19 18 19 23 26 27 31 32 31 33 35 40 41 34 33 33 29 33 26 28 28 30 32
5 2 3 5 2 6 9 12 17 17 12 9 2 3 7 5 9 9 12 13 15 15 16 19 23 24 24 27 30 31 33 34 40 43 41 35 34 36 31 31 28 26 26 31
8 9 4 5 9 9 11 12 7 7 8 8 8 4 8 11 12 12 11 10 10 11 13 15 19 27 28 29 30 31 35 33 37 39 39 39 37 35 33 34 26 26 25 27
9 8 13 8 9 5 3 6 6 7 7 11 3 6 4 10 11 15 12 10 9 12 12 15 19 22 26 29 29 30 31 33 32 38 39 36 37 39 32 29 26 25 20 14
8 6 6 4 3 4 7 6 7 6 12 7 8 7 7 12 10 11 13 9 11 14 15 17 21 22 25 26 27 27 27 31 31 34 36 33 37 38 34 24 8 14 8 10
5 5 10 7 6 5 8 4 4 5 4 8 7 6 6 8 7 9 10 10 10 14 14 15 19 21 24 25 27 25 26 26 33 30 35 30 31 35 32 24 19 14 8 6
5 6 9 6 11 9 6 8 6 6 6 5 8 1 6 6 5 10 10 10 12 14 14 14 18 20 24 24 26 26 25 25 32 29 28 29 26 30 32 24 19 15 10 7
6 5 8 12 4 6 7 7 6 4 4 6 8 14 6 10 10 9 11 11 13 13 14 14 19 19 22 24 24 26 25 24 25 30 27 27 25 20 26 26 22 17 12 8
8 6 7 6 8 6 9 9 8 7 3 10 9 9 12 7 4 8 10 11 13 15 16 16 18 12 14 19 20 24 24 26 23 25 24 27 23 22 18 25 24 19 15 12
4 7 12 8 6 5 14 12 12 12 9 11 11 15 11 13 12 11 11 11 14 15 17 17 15 18 17 19 21 23 24 25 26 24 21 25 27 31 27 24 21 20 16 15
6 7 11 11 4 4 8 11 13 15 15 14 16 17 11 10 10 8 12 12 15 16 17 16 16 19 23 24 25 25 25 24 24 23 24 25 26 25 27 28 28 25 20 15
9 4 3 8 10 10 11 14 16 15 15 14 14 14 6 10 12 13 13 12 15 16 16 16 16 20 22 24 25 26 26 26 24 24 24 22 22 22 20 22 19 15 15 14
10 5 7 9 8 10 12 16 12 10 2 4 10 10 12 11 12 11 10 10 13 14 15 15 15 19 22 23 24 25 26 25 25 23 24 25 25 22 21 19 18 17 15 15
8 8 3 4 5 12 4 5 3 2 8 10 6 7 7 9 8 5 5 11 12 14 14 14 18 20 21 22 23 23 23 23 25 25 26 25 25 27 26 24 23 22 21 22
7 7 5 5 11 5 8 7 5 5 5 4 5 5 7 8 10 3 6 10 11 12 15 17 18 19 19 20 23 24 23 22 23 25 25 26 26 26 25 24 22 20 20 19
7 5 6 7 9 8 9 9 4 2 9 8 4 5 5 9 7 4 11 11 12 14 15 17 19 19 18 19 20 21 22 23 25 26 27 26 25 23 23 24 24 23 23 21
9 7 10 10 6 1 9 8 5 7 3 6 4 3 2 4 5 10 9 10 12 15 16 17 18 18 18 19 20 20 21 22 24 24 23 23 22 23 22 22 20 21 20 19
10 7 6 8 6 8 10 8 6 4 4 3 3 2 3 6 7 7 8 10 12 14 16 16 18 18 19 19 20 21 21 24 24 23 22 21 20 19 19 20 19 19 19 19
6 4 3 2 0 7 5 3 3 1 4 4 3 3 4 6 6 8 9 9 11 13 15 16 17 18 18 19 21 22 22 23 24 24 24 21 21 20 20 20 20 20 20 20
8 5 1 2 6 8 5 4 4 3 3 3 2 2 4 5 6 8 9 10 13 14 15 17 18 18 20 21 21 21 22 24 25 24 23 21 21 22 20 20 18 18 19 20
6 9 7 3 5 6 5 6 5 4 4 3 1 3 4 5 6 8 9 11 14 15 16 17 17 18 19 21 22 22 22 23 24 23 21 19 19 18 19 18 18 16 15 16
5 8 6 1 8 5 7 7 7 7 6 2 2 2 3 6 7 9 10 11 13 15 16 17 17 18 20 21 21 20 20 21 21 22 21 21 20 19 19 20 19 16 15 16
Wind_Direction
187 264 239 16 25 338 309 294 285 286 349 317 297 296 300 32 47 50 48 21 12 353 357 358 355 358 357 349 345 340 329 319 312 293 266 248 241 240 234 235 233 226 219 215
233 241 67 23 327 281 280 281 278 308 238 312 284 296 277 86 89 60 27 14 2 356 349 354 7 356 354 348 345 340 336 324 306 296 290 261 257 245 240 233 232 232 225 217
250 69 118 205 229 261 266 250 298 308 309 279 270 290 121 143 132 42 21 11 358 7 2 359 355 354 350 352 348 343 337 333 321 299 290 282 264 255 248 239 241 229 227 223
249 137 226 234 246 265 280 70 273 284 290 290 337 282 253 149 146 41 9 19 18 4 358 357 353 353 350 351 348 345 343 341 339 335 305 284 279 264 236 234 236 235 228 224
160 186 208 232 255 245 283 312 279 274 277 281 263 245 185 165 131 22 39 24 7 7 359 358 356 353 355 352 349 347 345 347 346 344 334 314 293 264 259 241 232 232 230 228
333 51 263 316 177 262 310 282 261 249 250 260 236 227 281 115 51 27 36 25 14 2 355 355 351 349 354 357 356 350 349 348 347 344 340 335 319 288 260 251 234 230 227 227
196 212 166 215 234 199 241 272 283 234 208 257 125 239 274 92 71 67 40 29 6 5 357 346 346 346 348 354 356 358 348 344 348 342 339 339 338 327 287 257 243 232 229 221
197 196 195 169 250 318 284 293 284 293 296 299 177 255 121 86 85 95 48 24 2 359 352 349 347 344 343 346 351 353 355 339 347 345 338 340 345 347 332 261 250 242 220 195
218 191 118 216 186 267 137 246 30 296 258 271 250 221 219 149 81 49 49 352 348 337 344 346 347 347 346 344 346 347 351 349 341 348 337 343 349 349 344 346 93 102 112 148
205 202 187 158 218 206 269 35 211 185 263 272 282 271 264 64 10 353 15 1 341 338 342 340 343 339 344 343 342 343 350 354 341 351 342 332 354 350 346 354 17 58 49 51
205 241 158 171 210 228 172 226 237 303 273 287 301 19 61 61 14 5 1 343 341 337 335 344 339 337 342 341 343 342 349 352 345 343 342 341 0 352 351 354 6 28 29 18
187 232 201 213 92 291 269 235 198 257 228 233 279 278 89 51 28 5 348 337 334 329 336 344 337 343 338 340 343 342 346 348 350 337 353 343 346 353 356 344 7 16 14 14
170 213 191 214 209 206 226 206 181 207 273 264 274 285 105 70 288 4 343 342 332 332 336 339 339 348 333 339 342 343 343 346 349 338 354 343 346 349 347 348 1 4 5 5
250 257 242 271 2 171 205 221 206 214 245 276 269 276 327 14 354 357 342 336 328 328 335 337 340 336 341 345 344 346 345 348 348 344 350 351 347 355 349 352 1 353 358 355
221 246 235 258 238 240 208 212 219 234 247 260 278 296 355 355 354 357 324 335 327 332 334 335 339 339 340 343 342 344 344 347 346 350 350 357 350 355 353 350 341 350 354 351
208 241 323 253 246 243 245 239 245 251 260 272 284 294 10 349 335 343 333 338 328 332 335 339 340 342 340 341 342 342 343 345 348 351 349 351 354 355 349 340 340 344 330 333
190 220 207 254 193 215 243 234 228 237 266 292 277 322 344 332 337 334 341 335 329 333 339 340 341 341 340 339 342 343 342 343 345 351 350 350 350 351 349 344 342 340 336 343
195 216 218 272 175 235 127 52 96 224 250 246 258 291 311 317 326 349 358 328 337 335 338 338 337 338 338 338 343 340 342 344 346 349 349 349 349 347 347 346 346 346 348 356
210 209 215 228 226 155 173 191 217 240 263 183 251 268 306 315 301 153 346 343 331 329 331 333 335 333 335 342 343 341 343 344 348 349 347 345 344 345 346 347 345 345 344 350
197 264 263 216 255 251 81 117 141 141 259 152 214 267 295 314 297 92 351 334 325 329 331 333 332 332 337 343 346 340 342 347 349 345 340 343 344 344 345 345 344 347 349 351
194 214 220 237 242 289 144 144 168 236 92 162 247 245 315 307 310 309 319 315 326 328 330 332 334 332 338 341 344 340 343 351 344 340 339 342 342 343 344 343 345 348 349 346
190 196 201 242 227 245 151 147 232 88 137 181 196 234 275 281 295 309 312 325 331 333 332 336 333 334 337 341 342 340 347 342 341 339 340 341 342 344 344 345 347 351 351 349
206 220 240 189 142 125 116 83 94 120 155 179 209 240 277 295 319 318 325 325 330 330 335 337 334 332 338 340 342 338 342 339 339 339 340 339 341 345 346 349 351 351 354 353
204 159 219 190 190 176 145 128 159 146 167 203 235 311 304 322 320 320 330 330 335 341 341 337 334 336 336 339 338 338 340 341 339 339 333 337 342 341 347 351 350 350 351 351
151 178 187 215 206 128 203 165 177 163 182 199 163 346 346 331 329 337 329 338 341 340 339 340 338 338 336 337 338 340 342 341 338 334 333 340 341 342 343 346 346 346 348 341
189 198 191 272 172 177 155 145 162 169 194 170 300 297 344 342 336 338 336 346 350 342 342 342 340 338 337 338 337 339 338 338 334 332 333 336 336 342 343 342 342 345 344 343
Height
780 783 776 777 778 783 786 784 778 768 764 780 772 768 757 754 755 762 764 767 769 773 772 774 772 774 773 772 767 763 759 756 752 747 744 740 740 739 739 740 741 743 745 748
784 780 780 783 787 789 787 785 780 773 769 778 768 762 750 760 768 771 775 775 776 776 777 776 778 780 779 775 772 766 762 754 752 747 740 736 732 730 731 731 732 736 738 740
780 778 785 787 787 788 781 782 786 789 780 769 758 756 756 761 767 773 776 777 782 782 784 784 785 783 781 778 774 770 763 756 748 745 739 733 728 724 724 724 725 725 728 731
774 772 788 788 786 789 786 788 791 788 783 776 760 770 749 754 760 769 780 781 794 797 796 795 791 788 784 781 778 774 767 758 749 739 734 728 723 717 714 716 717 718 720 723
776 786 788 786 783 791 784 792 790 785 780 774 762 759 742 756 766 774 784 800 801 802 803 802 799 796 789 786 780 775 769 760 751 744 737 730 719 712 711 706 708 710 713 715
782 783 787 783 793 799 794 793 781 776 771 770 746 760 748 755 775 780 792 804 807 809 806 804 803 798 791 785 779 775 768 761 753 746 738 731 721 708 702 698 697 703 707 709
790 788 790 792 795 793 790 784 775 767 764 757 758 771 759 764 778 797 803 808 809 809 809 808 803 796 790 784 779 772 767 761 755 749 742 731 719 707 698 694 692 697 700 701
782 792 787 787 790 785 787 791 785 783 764 755 757 764 756 765 779 799 806 805 809 807 806 804 803 801 796 788 781 775 769 763 756 751 743 733 721 710 699 691 691 692 694 696
769 775 787 791 793 795 789 793 788 795 783 788 761 745 753 762 784 789 806 814 817 813 808 805 805 802 798 791 785 780 772 765 758 751 746 735 724 715 707 698 688 689 692 692
770 781 785 793 797 797 795 789 796 796 806 784 757 758 763 777 793 796 801 807 813 809 809 806 806 803 798 794 789 782 774 766 761 754 749 741 726 721 714 708 695 690 692 694
775 780 786 791 792 782 796 796 796 788 783 785 778 765 777 787 793 796 798 803 807 806 804 803 804 801 799 795 790 783 776 768 763 755 750 740 729 729 714 714 704 697 697 698
779 781 780 785 779 786 783 789 794 801 793 792 797 784 771 783 795 799 801 803 805 804 801 802 801 799 799 795 790 785 778 772 765 758 748 745 741 733 723 720 711 705 705 703
787 783 780 788 790 790 789 788 793 805 813 804 804 783 783 800 802 800 803 803 803 801 799 800 799 798 796 791 787 784 779 772 766 759 750 747 740 734 732 720 714 713 710 708
789 783 777 771 773 769 789 785 786 790 797 787 780 774 771 785 793 801 803 806 804 802 800 799 798 797 794 790 787 783 779 773 767 760 752 746 739 726 721 723 720 721 717 713
792 793 783 780 780 779 779 783 784 788 787 789 780 777 778 793 797 807 805 806 805 803 802 801 799 796 792 789 786 783 779 774 768 762 755 747 743 735 727 723 720 719 719 718
793 794 792 789 782 781 784 780 781 780 778 777 778 780 791 795 797 802 804 810 809 806 804 802 800 797 793 791 786 783 779 773 769 764 759 754 750 742 740 736 730 725 725 720
793 790 792 781 778 782 785 777 775 779 784 797 796 789 796 801 804 807 811 813 811 807 806 804 802 800 796 792 787 784 779 775 770 766 761 754 750 746 743 739 735 731 728 722
791 789 786 779 785 794 774 772 776 786 790 788 795 801 806 805 806 810 816 812 811 809 807 806 804 801 797 793 789 786 780 776 771 766 761 757 753 745 741 738 733 727 722 715
786 785 786 787 777 773 781 783 785 784 784 792 801 803 805 803 802 815 814 813 813 811 809 807 805 802 798 794 790 785 781 777 773 769 765 760 754 749 744 739 735 732 727 720
788 789 790 783 780 772 772 785 791 793 794 799 804 809 811 807 797 800 813 815 812 810 809 807 805 801 798 795 792 788 783 778 774 770 764 760 756 754 748 742 736 730 724 720
794 795 794 783 781 774 779 788 793 798 802 806 811 811 817 817 817 816 816 814 812 810 808 806 804 800 798 795 792 789 784 783 779 775 769 764 759 753 748 746 741 736 731 729
791 792 787 784 787 785 782 792 795 801 808 811 814 815 819 818 815 815 814 811 810 809 807 805 803 801 797 795 793 789 786 784 782 778 772 768 764 759 755 750 744 738 735 730
791 788 775 775 779 785 786 792 802 805 807 813 814 817 815 813 815 815 813 811 810 809 808 806 804 800 798 796 793 790 789 787 781 776 772 768 763 758 753 746 741 738 734 730
781 780 789 789 790 786 796 800 804 809 812 814 814 814 815 816 817 815 813 811 810 810 810 809 806 802 799 797 795 792 789 785 780 777 772 766 760 757 751 746 742 739 736 734
772 779 782 792 789 792 796 800 807 811 814 814 815 816 818 818 817 817 815 814 814 814 813 812 809 806 803 800 796 792 789 785 781 777 772 767 763 758 754 749 745 742 740 739
768 773 782 775 787 792 792 804 809 813 814 814 816 816 819 820 820 820 819 819 820 820 818 815 813 810 807 803 799 796 793 789 784 779 773 767 762 757 753 749 745 743 740 737